date,time,SUV Intensity [MED/Hr],UV Index,Daily total [MED],Since Last [MED]
11/12/2023,00:04:34,-0.001,0.0,0.0,0.0
11/12/2023,00:05:34,-0.001,0.0,0.0,0.0
11/12/2023,00:06:34,0.001,0.0,0.0,0.0
11/12/2023,00:07:34,0.000,0.0,0.0,0.0
11/12/2023,00:08:34,-0.001,0.0,0.0,0.0
11/12/2023,00:09:34,0.000,0.0,0.0,0.0
11/12/2023,00:10:34,0.000,0.0,0.0,0.0
11/12/2023,00:11:33,0.000,0.0,0.0,0.0
11/12/2023,00:12:33,0.000,0.0,0.0,0.0
11/12/2023,00:13:33,0.000,0.0,0.0,0.0
11/12/2023,00:14:34,0.000,0.0,0.0,0.0
11/12/2023,00:15:34,-0.000,0.0,0.0,0.0
11/12/2023,00:16:33,0.001,0.0,0.0,0.0
11/12/2023,00:17:33,0.000,0.0,0.0,0.0
11/12/2023,00:18:33,0.000,0.0,0.0,0.0
11/12/2023,00:19:35,0.001,0.0,0.0,0.0
11/12/2023,00:20:33,0.000,0.0,0.0,0.0
11/12/2023,00:21:33,-0.001,0.0,0.0,0.0
11/12/2023,00:22:33,0.000,0.0,0.0,0.0
11/12/2023,00:23:34,0.000,0.0,0.0,0.0
11/12/2023,00:24:35,0.000,0.0,0.0,0.0
11/12/2023,00:25:32,0.000,0.0,0.0,0.0
11/12/2023,00:26:35,0.001,0.0,0.0,0.0
11/12/2023,00:27:33,0.000,0.0,0.0,0.0
11/12/2023,00:28:35,0.000,0.0,0.0,0.0
11/12/2023,00:29:34,0.001,0.0,0.0,0.0
11/12/2023,00:30:34,0.001,0.0,0.0,0.0
11/12/2023,00:31:34,0.001,0.0,0.0,0.0
11/12/2023,00:32:34,0.001,0.0,0.0,0.0
11/12/2023,00:33:34,0.001,0.0,0.0,0.0
11/12/2023,00:34:33,0.000,0.0,0.0,0.0
11/12/2023,00:35:34,-0.000,0.0,0.0,0.0
11/12/2023,00:36:34,0.000,0.0,0.0,0.0
11/12/2023,00:37:34,0.000,0.0,0.0,0.0
11/12/2023,00:38:34,-0.000,0.0,0.0,0.0
11/12/2023,00:39:34,0.001,0.0,0.0,0.0
11/12/2023,00:40:34,0.000,0.0,0.0,0.0
11/12/2023,00:41:33,0.000,0.0,0.0,0.0
11/12/2023,00:42:34,0.000,0.0,0.0,0.0
11/12/2023,00:43:33,-0.000,0.0,0.0,0.0
11/12/2023,00:44:34,0.000,0.0,0.0,0.0
11/12/2023,00:45:34,0.000,0.0,0.0,0.0
11/12/2023,00:46:33,0.000,0.0,0.0,0.0
11/12/2023,00:47:34,0.001,0.0,0.0,0.0
11/12/2023,00:48:34,0.000,0.0,0.0,0.0
11/12/2023,00:49:33,0.000,0.0,0.0,0.0
11/12/2023,00:50:33,0.000,0.0,0.0,0.0
11/12/2023,00:51:34,0.000,0.0,0.0,0.0
11/12/2023,00:52:33,0.000,0.0,0.0,0.0
11/12/2023,00:53:34,0.001,0.0,0.0,0.0
11/12/2023,00:54:33,0.001,0.0,0.0,0.0
11/12/2023,00:55:34,-0.001,0.0,0.0,0.0
11/12/2023,00:56:33,-0.001,0.0,0.0,0.0
11/12/2023,00:57:34,0.000,0.0,0.0,0.0
11/12/2023,00:58:34,-0.001,0.0,0.0,0.0
11/12/2023,00:59:34,-0.001,0.0,0.0,0.0
11/12/2023,01:00:33,0.000,0.0,0.0,0.0
11/12/2023,01:01:34,0.000,0.0,0.0,0.0
11/12/2023,01:02:34,0.001,0.0,0.0,0.0
11/12/2023,01:03:33,0.000,0.0,0.0,0.0
11/12/2023,01:04:33,-0.000,0.0,0.0,0.0
11/12/2023,01:05:34,0.000,0.0,0.0,0.0
11/12/2023,01:06:34,0.000,0.0,0.0,0.0
11/12/2023,01:07:34,0.000,0.0,0.0,0.0
11/12/2023,01:08:34,-0.000,0.0,0.0,0.0
11/12/2023,01:09:34,0.000,0.0,0.0,0.0
11/12/2023,01:10:33,-0.001,0.0,0.0,0.0
11/12/2023,01:11:34,0.000,0.0,0.0,0.0
11/12/2023,01:12:33,0.001,0.0,0.0,0.0
11/12/2023,01:13:34,-0.000,0.0,0.0,0.0
11/12/2023,01:14:34,0.001,0.0,0.0,0.0
11/12/2023,01:15:34,-0.001,0.0,0.0,0.0
11/12/2023,01:16:34,0.000,0.0,0.0,0.0
11/12/2023,01:17:33,0.001,0.0,0.0,0.0
11/12/2023,01:18:34,0.000,0.0,0.0,0.0
11/12/2023,01:19:34,0.000,0.0,0.0,0.0
11/12/2023,01:20:33,0.000,0.0,0.0,0.0
11/12/2023,01:21:34,-0.000,0.0,0.0,0.0
11/12/2023,01:22:33,0.000,0.0,0.0,0.0
11/12/2023,01:23:34,0.001,0.0,0.0,0.0
11/12/2023,01:24:34,0.001,0.0,0.0,0.0
11/12/2023,01:25:33,-0.001,0.0,0.0,0.0
11/12/2023,01:26:34,0.000,0.0,0.0,0.0
11/12/2023,01:27:33,0.000,0.0,0.0,0.0
11/12/2023,01:28:34,0.000,0.0,0.0,0.0
11/12/2023,01:29:34,0.001,0.0,0.0,0.0
11/12/2023,01:30:34,0.001,0.0,0.0,0.0
11/12/2023,01:31:34,-0.001,0.0,0.0,0.0
11/12/2023,01:32:34,0.000,0.0,0.0,0.0
11/12/2023,01:33:34,0.000,0.0,0.0,0.0
11/12/2023,01:34:34,-0.001,0.0,0.0,0.0
11/12/2023,01:35:33,0.000,0.0,0.0,0.0
11/12/2023,01:36:33,-0.000,0.0,0.0,0.0
11/12/2023,01:37:33,0.000,0.0,0.0,0.0
11/12/2023,01:38:33,0.001,0.0,0.0,0.0
11/12/2023,01:39:33,0.001,0.0,0.0,0.0
11/12/2023,01:40:33,0.000,0.0,0.0,0.0
11/12/2023,01:41:34,0.001,0.0,0.0,0.0
11/12/2023,01:42:34,0.001,0.0,0.0,0.0
11/12/2023,01:43:33,0.002,0.0,0.0,0.0
11/12/2023,01:44:33,0.000,0.0,0.0,0.0
11/12/2023,01:45:34,0.001,0.0,0.0,0.0
11/12/2023,01:46:34,0.000,0.0,0.0,0.0
11/12/2023,01:47:34,0.000,0.0,0.0,0.0
11/12/2023,01:48:34,0.000,0.0,0.0,0.0
11/12/2023,01:49:33,0.000,0.0,0.0,0.0
11/12/2023,01:50:33,0.000,0.0,0.0,0.0
11/12/2023,01:51:33,0.000,0.0,0.0,0.0
11/12/2023,01:52:34,0.001,0.0,0.0,0.0
11/12/2023,01:53:34,0.000,0.0,0.0,0.0
11/12/2023,01:54:34,0.000,0.0,0.0,0.0
11/12/2023,01:55:34,0.001,0.0,0.0,0.0
11/12/2023,01:56:34,0.000,0.0,0.0,0.0
11/12/2023,01:57:34,0.001,0.0,0.0,0.0
11/12/2023,01:58:34,0.000,0.0,0.0,0.0
11/12/2023,01:59:34,0.000,0.0,0.0,0.0
11/12/2023,02:00:34,0.001,0.0,0.0,0.0
11/12/2023,02:01:34,0.000,0.0,0.0,0.0
11/12/2023,02:02:34,0.000,0.0,0.0,0.0
11/12/2023,02:03:33,-0.000,0.0,0.0,0.0
11/12/2023,02:04:34,0.000,0.0,0.0,0.0
11/12/2023,02:05:34,-0.000,0.0,0.0,0.0
11/12/2023,02:06:34,0.000,0.0,0.0,0.0
11/12/2023,02:07:33,0.000,0.0,0.0,0.0
11/12/2023,02:08:34,0.000,0.0,0.0,0.0
11/12/2023,02:09:34,-0.000,0.0,0.0,0.0
11/12/2023,02:10:33,0.001,0.0,0.0,0.0
11/12/2023,02:11:34,0.000,0.0,0.0,0.0
11/12/2023,02:12:34,0.002,0.0,0.0,0.0
11/12/2023,02:13:34,-0.001,0.0,0.0,0.0
11/12/2023,02:14:34,0.000,0.0,0.0,0.0
11/12/2023,02:15:34,0.001,0.0,0.0,0.0
11/12/2023,02:16:34,0.001,0.0,0.0,0.0
11/12/2023,02:17:34,0.001,0.0,0.0,0.0
11/12/2023,02:18:34,0.000,0.0,0.0,0.0
11/12/2023,02:19:34,0.000,0.0,0.0,0.0
11/12/2023,02:20:36,0.000,0.0,0.0,0.0
11/12/2023,02:21:34,0.000,0.0,0.0,0.0
11/12/2023,02:22:33,0.001,0.0,0.0,0.0
11/12/2023,02:23:33,0.002,0.0,0.0,0.0
11/12/2023,02:24:34,0.001,0.0,0.0,0.0
11/12/2023,02:25:33,0.000,0.0,0.0,0.0
11/12/2023,02:26:33,0.002,0.0,0.0,0.0
11/12/2023,02:27:34,-0.000,0.0,0.0,0.0
11/12/2023,02:28:34,0.001,0.0,0.0,0.0
11/12/2023,02:29:34,0.001,0.0,0.0,0.0
11/12/2023,02:30:34,-0.001,0.0,0.0,0.0
11/12/2023,02:31:34,0.001,0.0,0.0,0.0
11/12/2023,02:32:34,-0.000,0.0,0.0,0.0
11/12/2023,02:33:33,0.001,0.0,0.0,0.0
11/12/2023,02:34:33,0.001,0.0,0.0,0.0
11/12/2023,02:35:34,0.001,0.0,0.0,0.0
11/12/2023,02:36:34,0.002,0.0,0.0,0.0
11/12/2023,02:37:33,0.000,0.0,0.0,0.0
11/12/2023,02:38:33,0.000,0.0,0.0,0.0
11/12/2023,02:39:33,-0.000,0.0,0.0,0.0
11/12/2023,02:40:34,0.001,0.0,0.0,0.0
11/12/2023,02:41:34,0.001,0.0,0.0,0.0
11/12/2023,02:42:34,0.001,0.0,0.0,0.0
11/12/2023,02:43:34,0.001,0.0,0.0,0.0
11/12/2023,02:44:34,0.001,0.0,0.0,0.0
11/12/2023,02:45:34,0.001,0.0,0.0,0.0
11/12/2023,02:46:33,0.000,0.0,0.0,0.0
11/12/2023,02:47:34,0.002,0.0,0.0,0.0
11/12/2023,02:48:33,0.001,0.0,0.0,0.0
11/12/2023,02:49:34,0.001,0.0,0.0,0.0
11/12/2023,02:50:33,0.000,0.0,0.0,0.0
11/12/2023,02:51:34,0.001,0.0,0.0,0.0
11/12/2023,02:52:33,0.000,0.0,0.0,0.0
11/12/2023,02:53:34,-0.000,0.0,0.0,0.0
11/12/2023,02:54:33,-0.000,0.0,0.0,0.0
11/12/2023,02:55:34,-0.000,0.0,0.0,0.0
11/12/2023,02:56:33,0.001,0.0,0.0,0.0
11/12/2023,02:57:34,0.001,0.0,0.0,0.0
11/12/2023,02:58:34,-0.000,0.0,0.0,0.0
11/12/2023,02:59:34,0.001,0.0,0.0,0.0
11/12/2023,03:00:33,0.000,0.0,0.0,0.0
11/12/2023,03:01:34,0.002,0.0,0.0,0.0
11/12/2023,03:02:33,0.002,0.0,0.0,0.0
11/12/2023,03:03:34,0.001,0.0,0.0,0.0
11/12/2023,03:04:34,0.000,0.0,0.0,0.0
11/12/2023,03:05:33,0.001,0.0,0.0,0.0
11/12/2023,03:06:34,-0.000,0.0,0.0,0.0
11/12/2023,03:07:34,0.001,0.0,0.0,0.0
11/12/2023,03:08:34,0.002,0.0,0.0,0.0
11/12/2023,03:09:34,0.001,0.0,0.0,0.0
11/12/2023,03:10:33,0.000,0.0,0.0,0.0
11/12/2023,03:11:34,0.001,0.0,0.0,0.0
11/12/2023,03:12:34,0.001,0.0,0.0,0.0
11/12/2023,03:13:33,0.001,0.0,0.0,0.0
11/12/2023,03:14:34,0.001,0.0,0.0,0.0
11/12/2023,03:15:34,0.001,0.0,0.0,0.0
11/12/2023,03:16:34,0.000,0.0,0.0,0.0
11/12/2023,03:17:34,0.000,0.0,0.0,0.0
11/12/2023,03:18:34,0.000,0.0,0.0,0.0
11/12/2023,03:19:34,0.000,0.0,0.0,0.0
11/12/2023,03:20:34,-0.000,0.0,0.0,0.0
11/12/2023,03:21:34,0.001,0.0,0.0,0.0
11/12/2023,03:22:33,0.001,0.0,0.0,0.0
11/12/2023,03:23:34,0.001,0.0,0.0,0.0
11/12/2023,03:24:34,0.001,0.0,0.0,0.0
11/12/2023,03:25:34,0.001,0.0,0.0,0.0
11/12/2023,03:26:33,0.002,0.0,0.0,0.0
11/12/2023,03:27:34,0.001,0.0,0.0,0.0
11/12/2023,03:28:34,0.001,0.0,0.0,0.0
11/12/2023,03:29:34,0.001,0.0,0.0,0.0
11/12/2023,03:30:34,0.002,0.0,0.0,0.0
11/12/2023,03:31:34,0.000,0.0,0.0,0.0
11/12/2023,03:32:34,-0.000,0.0,0.0,0.0
11/12/2023,03:33:34,0.001,0.0,0.0,0.0
11/12/2023,03:34:33,0.002,0.0,0.0,0.0
11/12/2023,03:35:34,0.001,0.0,0.0,0.0
11/12/2023,03:36:34,0.001,0.0,0.0,0.0
11/12/2023,03:37:34,0.002,0.0,0.0,0.0
11/12/2023,03:38:34,0.001,0.0,0.0,0.0
11/12/2023,03:39:34,0.002,0.0,0.0,0.0
11/12/2023,03:40:34,0.000,0.0,0.0,0.0
11/12/2023,03:41:34,0.000,0.0,0.0,0.0
11/12/2023,03:42:34,0.000,0.0,0.0,0.0
11/12/2023,03:43:33,0.000,0.0,0.0,0.0
11/12/2023,03:44:34,-0.000,0.0,0.0,0.0
11/12/2023,03:45:33,-0.000,0.0,0.0,0.0
11/12/2023,03:46:34,-0.000,0.0,0.0,0.0
11/12/2023,03:47:34,0.000,0.0,0.0,0.0
11/12/2023,03:48:34,0.001,0.0,0.0,0.0
11/12/2023,03:49:34,0.001,0.0,0.0,0.0
11/12/2023,03:50:34,0.001,0.0,0.0,0.0
11/12/2023,03:51:34,-0.000,0.0,0.0,0.0
11/12/2023,03:52:33,0.000,0.0,0.0,0.0
11/12/2023,03:53:34,0.001,0.0,0.0,0.0
11/12/2023,03:54:33,0.001,0.0,0.0,0.0
11/12/2023,03:55:34,-0.000,0.0,0.0,0.0
11/12/2023,03:56:34,0.001,0.0,0.0,0.0
11/12/2023,03:57:33,0.001,0.0,0.0,0.0
11/12/2023,03:58:34,0.001,0.0,0.0,0.0
11/12/2023,03:59:34,0.001,0.0,0.0,0.0
11/12/2023,04:00:33,0.001,0.0,0.0,0.0
11/12/2023,04:01:34,0.001,0.0,0.0,0.0
11/12/2023,04:02:34,0.001,0.0,0.0,0.0
11/12/2023,04:03:34,0.000,0.0,0.0,0.0
11/12/2023,04:04:34,0.002,0.0,0.0,0.0
11/12/2023,04:05:34,-0.000,0.0,0.0,0.0
11/12/2023,04:06:34,0.002,0.0,0.0,0.0
11/12/2023,04:07:34,0.000,0.0,0.0,0.0
11/12/2023,04:08:34,0.000,0.0,0.0,0.0
11/12/2023,04:09:34,0.000,0.0,0.0,0.0
11/12/2023,04:10:34,-0.001,0.0,0.0,0.0
11/12/2023,04:11:34,0.000,0.0,0.0,0.0
11/12/2023,04:12:34,0.001,0.0,0.0,0.0
11/12/2023,04:13:34,0.000,0.0,0.0,0.0
11/12/2023,04:14:34,0.001,0.0,0.0,0.0
11/12/2023,04:15:34,0.001,0.0,0.0,0.0
11/12/2023,04:16:34,0.001,0.0,0.0,0.0
11/12/2023,04:17:34,0.000,0.0,0.0,0.0
11/12/2023,04:18:35,0.000,0.0,0.0,0.0
11/12/2023,04:19:34,0.000,0.0,0.0,0.0
11/12/2023,04:20:34,0.000,0.0,0.0,0.0
11/12/2023,04:21:34,0.001,0.0,0.0,0.0
11/12/2023,04:22:34,0.001,0.0,0.0,0.0
11/12/2023,04:23:34,0.000,0.0,0.0,0.0
11/12/2023,04:24:34,0.000,0.0,0.0,0.0
11/12/2023,04:25:34,0.000,0.0,0.0,0.0
11/12/2023,04:26:33,-0.001,0.0,0.0,0.0
11/12/2023,04:27:34,0.000,0.0,0.0,0.0
11/12/2023,04:28:34,0.000,0.0,0.0,0.0
11/12/2023,04:29:34,0.001,0.0,0.0,0.0
11/12/2023,04:30:33,0.000,0.0,0.0,0.0
11/12/2023,04:31:34,0.001,0.0,0.0,0.0
11/12/2023,04:32:34,0.001,0.0,0.0,0.0
11/12/2023,04:33:34,0.001,0.0,0.0,0.0
11/12/2023,04:34:34,0.000,0.0,0.0,0.0
11/12/2023,04:35:34,0.001,0.0,0.0,0.0
11/12/2023,04:36:34,0.000,0.0,0.0,0.0
11/12/2023,04:37:33,0.001,0.0,0.0,0.0
11/12/2023,04:38:34,0.000,0.0,0.0,0.0
11/12/2023,04:39:34,0.001,0.0,0.0,0.0
11/12/2023,04:40:34,0.001,0.0,0.0,0.0
11/12/2023,04:41:34,0.000,0.0,0.0,0.0
11/12/2023,04:42:34,0.001,0.0,0.0,0.0
11/12/2023,04:43:34,0.001,0.0,0.0,0.0
11/12/2023,04:44:34,0.002,0.0,0.0,0.0
11/12/2023,04:45:34,0.001,0.0,0.0,0.0
11/12/2023,04:46:34,0.001,0.0,0.0,0.0
11/12/2023,04:47:34,0.001,0.0,0.0,0.0
11/12/2023,04:48:34,0.001,0.0,0.0,0.0
11/12/2023,04:49:34,0.001,0.0,0.0,0.0
11/12/2023,04:50:34,0.001,0.0,0.0,0.0
11/12/2023,04:51:34,0.000,0.0,0.0,0.0
11/12/2023,04:52:34,0.001,0.0,0.0,0.0
11/12/2023,04:53:34,0.001,0.0,0.0,0.0
11/12/2023,04:54:34,-0.000,0.0,0.0,0.0
11/12/2023,04:55:34,0.000,0.0,0.0,0.0
11/12/2023,04:56:34,0.001,0.0,0.0,0.0
11/12/2023,04:57:34,0.000,0.0,0.0,0.0
11/12/2023,04:58:34,0.000,0.0,0.0,0.0
11/12/2023,04:59:34,0.002,0.0,0.0,0.0
11/12/2023,05:00:34,-0.000,0.0,0.0,0.0
11/12/2023,05:01:34,0.000,0.0,0.0,0.0
11/12/2023,05:02:34,0.000,0.0,0.0,0.0
11/12/2023,05:03:34,0.000,0.0,0.0,0.0
11/12/2023,05:04:34,0.000,0.0,0.0,0.0
11/12/2023,05:05:35,0.000,0.0,0.0,0.0
11/12/2023,05:06:36,-0.000,0.0,0.0,0.0
11/12/2023,05:07:34,0.000,0.0,0.0,0.0
11/12/2023,05:08:34,0.001,0.0,0.0,0.0
11/12/2023,05:09:34,0.000,0.0,0.0,0.0
11/12/2023,05:10:34,0.000,0.0,0.0,0.0
11/12/2023,05:11:34,0.001,0.0,0.0,0.0
11/12/2023,05:12:34,0.001,0.0,0.0,0.0
11/12/2023,05:13:34,-0.000,0.0,0.0,0.0
11/12/2023,05:14:34,0.000,0.0,0.0,0.0
11/12/2023,05:15:34,0.000,0.0,0.0,0.0
11/12/2023,05:16:34,0.000,0.0,0.0,0.0
11/12/2023,05:17:34,0.000,0.0,0.0,0.0
11/12/2023,05:18:34,0.000,0.0,0.0,0.0
11/12/2023,05:19:34,0.001,0.0,0.0,0.0
11/12/2023,05:20:34,0.000,0.0,0.0,0.0
11/12/2023,05:21:34,0.000,0.0,0.0,0.0
11/12/2023,05:22:34,0.001,0.0,0.0,0.0
11/12/2023,05:23:35,0.001,0.0,0.0,0.0
11/12/2023,05:24:34,0.000,0.0,0.0,0.0
11/12/2023,05:25:34,0.000,0.0,0.0,0.0
11/12/2023,05:26:34,0.000,0.0,0.0,0.0
11/12/2023,05:27:34,0.001,0.0,0.0,0.0
11/12/2023,05:28:34,0.000,0.0,0.0,0.0
11/12/2023,05:29:34,0.001,0.0,0.0,0.0
11/12/2023,05:30:34,0.000,0.0,0.0,0.0
11/12/2023,05:31:34,0.001,0.0,0.0,0.0
11/12/2023,05:32:34,0.000,0.0,0.0,0.0
11/12/2023,05:33:34,0.001,0.0,0.0,0.0
11/12/2023,05:34:33,-0.001,0.0,0.0,0.0
11/12/2023,05:35:34,0.001,0.0,0.0,0.0
11/12/2023,05:36:35,0.000,0.0,0.0,0.0
11/12/2023,05:37:34,0.001,0.0,0.0,0.0
11/12/2023,05:38:34,0.000,0.0,0.0,0.0
11/12/2023,05:39:34,0.000,0.0,0.0,0.0
11/12/2023,05:40:34,0.001,0.0,0.0,0.0
11/12/2023,05:41:34,-0.000,0.0,0.0,0.0
11/12/2023,05:42:36,0.001,0.0,0.0,0.0
11/12/2023,05:43:34,0.000,0.0,0.0,0.0
11/12/2023,05:44:34,0.000,0.0,0.0,0.0
11/12/2023,05:45:34,-0.000,0.0,0.0,0.0
11/12/2023,05:46:34,0.000,0.0,0.0,0.0
11/12/2023,05:47:34,0.000,0.0,0.0,0.0
11/12/2023,05:48:36,0.000,0.0,0.0,0.0
11/12/2023,05:49:34,0.001,0.0,0.0,0.0
11/12/2023,05:50:34,0.001,0.0,0.0,0.0
11/12/2023,05:51:34,0.001,0.0,0.0,0.0
11/12/2023,05:52:34,0.002,0.0,0.0,0.0
11/12/2023,05:53:34,0.000,0.0,0.0,0.0
11/12/2023,05:54:34,0.001,0.0,0.0,0.0
11/12/2023,05:55:34,0.002,0.0,0.0,0.0
11/12/2023,05:56:34,0.001,0.0,0.0,0.0
11/12/2023,05:57:34,0.001,0.0,0.0,0.0
11/12/2023,05:58:34,0.001,0.0,0.0,0.0
11/12/2023,05:59:34,0.000,0.0,0.0,0.0
11/12/2023,06:00:34,0.000,0.0,0.0,0.0
11/12/2023,06:01:34,0.002,0.0,0.0,0.0
11/12/2023,06:02:35,0.002,0.0,0.0,0.0
11/12/2023,06:03:34,0.000,0.0,0.0,0.0
11/12/2023,06:04:34,0.002,0.0,0.0,0.0
11/12/2023,06:05:34,-0.000,0.0,0.0,0.0
11/12/2023,06:06:34,0.000,0.0,0.0,0.0
11/12/2023,06:07:34,0.000,0.0,0.0,0.0
11/12/2023,06:08:34,-0.000,0.0,0.0,0.0
11/12/2023,06:09:34,0.001,0.0,0.0,0.0
11/12/2023,06:10:34,0.001,0.0,0.0,0.0
11/12/2023,06:11:35,0.001,0.0,0.0,0.0
11/12/2023,06:12:34,-0.000,0.0,0.0,0.0
11/12/2023,06:13:34,0.002,0.0,0.0,0.0
11/12/2023,06:14:34,0.001,0.0,0.0,0.0
11/12/2023,06:15:34,0.001,0.0,0.0,0.0
11/12/2023,06:16:34,0.001,0.0,0.0,0.0
11/12/2023,06:17:34,0.000,0.0,0.0,0.0
11/12/2023,06:18:35,0.001,0.0,0.0,0.0
11/12/2023,06:19:34,0.001,0.0,0.0,0.0
11/12/2023,06:20:34,0.000,0.0,0.0,0.0
11/12/2023,06:21:34,0.001,0.0,0.0,0.0
11/12/2023,06:22:34,-0.000,0.0,0.0,0.0
11/12/2023,06:23:34,0.001,0.0,0.0,0.0
11/12/2023,06:24:34,0.001,0.0,0.0,0.0
11/12/2023,06:25:34,0.002,0.0,0.0,0.0
11/12/2023,06:26:34,0.001,0.0,0.0,0.0
11/12/2023,06:27:34,0.001,0.0,0.0,0.0
11/12/2023,06:28:34,0.001,0.0,0.0,0.0
11/12/2023,06:29:34,0.002,0.0,0.0,0.0
11/12/2023,06:30:34,0.000,0.0,0.0,0.0
11/12/2023,06:31:34,0.000,0.0,0.0,0.0
11/12/2023,06:32:34,0.001,0.0,0.0,0.0
11/12/2023,06:33:35,0.001,0.0,0.0,0.0
11/12/2023,06:34:34,0.001,0.0,0.0,0.0
11/12/2023,06:35:34,0.001,0.0,0.0,0.0
11/12/2023,06:36:34,0.001,0.0,0.0,0.0
11/12/2023,06:37:34,0.001,0.0,0.0,0.0
11/12/2023,06:38:34,0.002,0.0,0.0,0.0
11/12/2023,06:39:34,0.001,0.0,0.0,0.0
11/12/2023,06:40:34,0.001,0.0,0.0,0.0
11/12/2023,06:41:34,0.001,0.0,0.0,0.0
11/12/2023,06:42:34,0.001,0.0,0.0,0.0
11/12/2023,06:43:34,0.001,0.0,0.0,0.0
11/12/2023,06:44:35,0.000,0.0,0.0,0.0
11/12/2023,06:45:34,0.001,0.0,0.0,0.0
11/12/2023,06:46:34,0.001,0.0,0.0,0.0
11/12/2023,06:47:35,0.001,0.0,0.0,0.0
11/12/2023,06:48:34,0.002,0.0,0.0,0.0
11/12/2023,06:49:34,0.001,0.0,0.0,0.0
11/12/2023,06:50:34,0.001,0.0,0.0,0.0
11/12/2023,06:51:34,0.001,0.0,0.0,0.0
11/12/2023,06:52:34,0.001,0.0,0.0,0.0
11/12/2023,06:53:35,0.001,0.0,0.0,0.0
11/12/2023,06:54:34,0.001,0.0,0.0,0.0
11/12/2023,06:55:35,0.001,0.0,0.0,0.0
11/12/2023,06:56:34,0.001,0.0,0.0,0.0
11/12/2023,06:57:35,0.001,0.0,0.0,0.0
11/12/2023,06:58:35,0.001,0.0,0.0,0.0
11/12/2023,06:59:34,0.001,0.0,0.0,0.0
11/12/2023,07:00:34,0.001,0.0,0.0,0.0
11/12/2023,07:01:35,0.002,0.0,0.0,0.0
11/12/2023,07:02:34,0.000,0.0,0.0,0.0
11/12/2023,07:03:34,0.001,0.0,0.0,0.0
11/12/2023,07:04:34,0.000,0.0,0.0,0.0
11/12/2023,07:05:34,0.002,0.0,0.0,0.0
11/12/2023,07:06:35,0.001,0.0,0.0,0.0
11/12/2023,07:07:34,0.001,0.0,0.0,0.0
11/12/2023,07:08:35,0.001,0.0,0.0,0.0
11/12/2023,07:09:35,0.002,0.0,0.0,0.0
11/12/2023,07:10:34,0.000,0.0,0.0,0.0
11/12/2023,07:11:34,0.001,0.0,0.0,0.0
11/12/2023,07:12:34,0.001,0.0,0.0,0.0
11/12/2023,07:13:34,0.002,0.0,0.0,0.0
11/12/2023,07:14:35,0.001,0.0,0.0,0.0
11/12/2023,07:15:35,0.002,0.0,0.0,0.0
11/12/2023,07:16:32,0.001,0.0,0.0,0.0
11/12/2023,07:17:34,0.001,0.0,0.0,0.0
11/12/2023,07:18:34,0.001,0.0,0.0,0.0
11/12/2023,07:19:34,0.002,0.0,0.0,0.0
11/12/2023,07:20:34,0.001,0.0,0.0,0.0
11/12/2023,07:21:34,0.002,0.0,0.0,0.0
11/12/2023,07:22:35,0.001,0.0,0.0,0.0
11/12/2023,07:23:34,0.000,0.0,0.0,0.0
11/12/2023,07:24:35,0.001,0.0,0.0,0.0
11/12/2023,07:25:34,0.001,0.0,0.0,0.0
11/12/2023,07:26:34,0.000,0.0,0.0,0.0
11/12/2023,07:27:34,0.001,0.0,0.0,0.0
11/12/2023,07:28:34,0.002,0.0,0.0,0.0
11/12/2023,07:29:34,0.001,0.0,0.0,0.0
11/12/2023,07:30:34,0.001,0.0,0.0,0.0
11/12/2023,07:31:35,0.001,0.0,0.0,0.0
11/12/2023,07:32:35,0.000,0.0,0.0,0.0
11/12/2023,07:33:34,-0.000,0.0,0.0,0.0
11/12/2023,07:34:35,0.001,0.0,0.0,0.0
11/12/2023,07:35:34,0.001,0.0,0.0,0.0
11/12/2023,07:36:34,0.001,0.0,0.0,0.0
11/12/2023,07:37:34,0.001,0.0,0.0,0.0
11/12/2023,07:38:34,0.001,0.0,0.0,0.0
11/12/2023,07:39:34,0.001,0.0,0.0,0.0
11/12/2023,07:40:34,0.001,0.0,0.0,0.0
11/12/2023,07:41:34,0.001,0.0,0.0,0.0
11/12/2023,07:42:35,0.001,0.0,0.0,0.0
11/12/2023,07:43:35,0.001,0.0,0.0,0.0
11/12/2023,07:44:34,0.001,0.0,0.0,0.0
11/12/2023,07:45:34,0.001,0.0,0.0,0.0
11/12/2023,07:46:34,0.001,0.0,0.0,0.0
11/12/2023,07:47:34,0.001,0.0,0.0,0.0
11/12/2023,07:48:34,0.001,0.0,0.0,0.0
11/12/2023,07:49:34,0.001,0.0,0.0,0.0
11/12/2023,07:50:35,0.001,0.0,0.0,0.0
11/12/2023,07:51:34,0.001,0.0,0.0,0.0
11/12/2023,07:52:34,0.001,0.0,0.0,0.0
11/12/2023,07:53:34,0.001,0.0,0.0,0.0
11/12/2023,07:54:34,0.001,0.0,0.0,0.0
11/12/2023,07:55:35,0.001,0.0,0.0,0.0
11/12/2023,07:56:34,0.003,0.0,0.0,0.0
11/12/2023,07:57:34,0.002,0.0,0.0,0.0
11/12/2023,07:58:34,0.001,0.0,0.0,0.0
11/12/2023,07:59:34,0.001,0.0,0.0,0.0
11/12/2023,08:00:35,0.001,0.0,0.0,0.0
11/12/2023,08:01:34,0.001,0.0,0.0,0.0
11/12/2023,08:02:34,0.002,0.0,0.0,0.0
11/12/2023,08:03:34,0.000,0.0,0.0,0.0
11/12/2023,08:04:35,0.002,0.0,0.0,0.0
11/12/2023,08:05:34,0.003,0.0,0.0,0.0
11/12/2023,08:06:34,0.002,0.0,0.0,0.0
11/12/2023,08:07:34,0.003,0.0,0.0,0.0
11/12/2023,08:08:34,0.003,0.0,0.0,0.0
11/12/2023,08:09:34,0.003,0.0,0.0,0.0
11/12/2023,08:10:34,0.003,0.0,0.0,0.0
11/12/2023,08:11:34,0.003,0.0,0.0,0.0
11/12/2023,08:12:35,0.004,0.0,0.0,0.0
11/12/2023,08:13:34,0.003,0.0,0.0,0.0
11/12/2023,08:14:34,0.004,0.0,0.0,0.0
11/12/2023,08:15:35,0.004,0.0,0.0,0.0
11/12/2023,08:16:34,0.004,0.0,0.0,0.0
11/12/2023,08:17:35,0.005,0.0,0.0,0.0
11/12/2023,08:18:34,0.004,0.0,0.0,0.0
11/12/2023,08:19:34,0.005,0.0,0.0,0.0
11/12/2023,08:20:35,0.005,0.0,0.0,0.0
11/12/2023,08:21:34,0.005,0.0,0.0,0.0
11/12/2023,08:22:35,0.005,0.0,0.0,0.0
11/12/2023,08:23:35,0.004,0.0,0.0,0.0
11/12/2023,08:24:34,0.006,0.0,0.0,0.0
11/12/2023,08:25:35,0.006,0.0,0.0,0.0
11/12/2023,08:26:34,0.006,0.0,0.0,0.0
11/12/2023,08:27:34,0.006,0.0,0.0,0.0
11/12/2023,08:28:35,0.006,0.0,0.0,0.0
11/12/2023,08:29:34,0.007,0.0,0.0,0.0
11/12/2023,08:30:34,0.006,0.0,0.0,0.0
11/12/2023,08:31:35,0.006,0.0,0.0,0.0
11/12/2023,08:32:34,0.006,0.0,0.001,0.001
11/12/2023,08:33:34,0.006,0.0,0.001,0.0
11/12/2023,08:34:35,0.006,0.0,0.001,0.0
11/12/2023,08:35:35,0.006,0.0,0.001,0.0
11/12/2023,08:36:35,0.007,0.0,0.001,0.0
11/12/2023,08:37:34,0.009,0.0,0.001,0.0
11/12/2023,08:38:34,0.009,0.0,0.001,0.0
11/12/2023,08:39:34,0.009,0.0,0.001,0.0
11/12/2023,08:40:35,0.009,0.0,0.001,0.0
11/12/2023,08:41:34,0.009,0.0,0.002,0.001
11/12/2023,08:42:35,0.009,0.0,0.002,0.0
11/12/2023,08:43:35,0.008,0.0,0.002,0.0
11/12/2023,08:44:34,0.009,0.0,0.002,0.0
11/12/2023,08:45:34,0.010,0.0,0.002,0.0
11/12/2023,08:46:34,0.009,0.0,0.002,0.0
11/12/2023,08:47:34,0.011,0.0,0.002,0.0
11/12/2023,08:48:34,0.011,0.0,0.003,0.001
11/12/2023,08:49:34,0.011,0.0,0.003,0.0
11/12/2023,08:50:34,0.011,0.0,0.003,0.0
11/12/2023,08:51:34,0.011,0.0,0.003,0.0
11/12/2023,08:52:34,0.012,0.0,0.003,0.0
11/12/2023,08:53:35,0.012,0.0,0.003,0.0
11/12/2023,08:54:34,0.013,0.0,0.004,0.001
11/12/2023,08:55:34,0.013,0.0,0.004,0.0
11/12/2023,08:56:35,0.012,0.0,0.004,0.0
11/12/2023,08:57:34,0.013,0.0,0.004,0.0
11/12/2023,08:58:35,0.014,0.0,0.005,0.001
11/12/2023,08:59:34,0.014,0.0,0.005,0.0
11/12/2023,09:00:35,0.014,0.0,0.005,0.0
11/12/2023,09:01:34,0.013,0.0,0.005,0.0
11/12/2023,09:02:34,0.015,0.0,0.006,0.001
11/12/2023,09:03:34,0.014,0.0,0.006,0.0
11/12/2023,09:04:35,0.014,0.0,0.006,0.0
11/12/2023,09:05:35,0.015,0.0,0.006,0.0
11/12/2023,09:06:35,0.015,0.0,0.006,0.0
11/12/2023,09:07:34,0.015,0.0,0.007,0.001
11/12/2023,09:08:34,0.016,0.0,0.007,0.0
11/12/2023,09:09:34,0.016,0.0,0.007,0.0
11/12/2023,09:10:34,0.016,0.0,0.008,0.001
11/12/2023,09:11:35,0.018,0.0,0.008,0.0
11/12/2023,09:12:35,0.018,0.0,0.008,0.0
11/12/2023,09:13:34,0.019,0.0,0.008,0.0
11/12/2023,09:14:35,0.019,0.0,0.009,0.001
11/12/2023,09:15:35,0.020,0.0,0.009,0.0
11/12/2023,09:16:34,0.020,0.0,0.009,0.0
11/12/2023,09:17:35,0.022,0.0,0.01,0.001
11/12/2023,09:18:35,0.022,0.0,0.01,0.0
11/12/2023,09:19:35,0.022,0.0,0.01,0.0
11/12/2023,09:20:34,0.022,0.0,0.011,0.001
11/12/2023,09:21:34,0.022,0.0,0.011,0.0
11/12/2023,09:22:34,0.021,0.0,0.012,0.001
11/12/2023,09:23:35,0.021,0.0,0.012,0.0
11/12/2023,09:24:35,0.021,0.0,0.012,0.0
11/12/2023,09:25:34,0.022,0.0,0.013,0.001
11/12/2023,09:26:35,0.022,0.0,0.013,0.0
11/12/2023,09:27:35,0.022,0.0,0.013,0.0
11/12/2023,09:28:34,0.022,0.0,0.014,0.001
11/12/2023,09:29:35,0.022,0.0,0.014,0.0
11/12/2023,09:30:35,0.021,0.0,0.015,0.001
11/12/2023,09:31:34,0.023,0.0,0.015,0.0
11/12/2023,09:32:34,0.023,0.0,0.015,0.0
11/12/2023,09:33:35,0.023,0.0,0.016,0.001
11/12/2023,09:34:35,0.024,0.0,0.016,0.0
11/12/2023,09:35:34,0.024,0.0,0.016,0.0
11/12/2023,09:36:35,0.026,0.0,0.017,0.001
11/12/2023,09:37:34,0.024,0.0,0.017,0.0
11/12/2023,09:38:34,0.024,0.0,0.018,0.001
11/12/2023,09:39:34,0.024,0.0,0.018,0.0
11/12/2023,09:40:34,0.026,0.0,0.019,0.001
11/12/2023,09:41:35,0.029,0.0,0.019,0.0
11/12/2023,09:42:36,0.029,0.0,0.019,0.0
11/12/2023,09:43:35,0.029,0.0,0.02,0.001
11/12/2023,09:44:35,0.029,0.0,0.02,0.0
11/12/2023,09:45:35,0.029,0.0,0.021,0.001
11/12/2023,09:46:35,0.030,0.0,0.021,0.0
11/12/2023,09:47:35,0.031,0.0,0.022,0.001
11/12/2023,09:48:35,0.030,0.0,0.022,0.0
11/12/2023,09:49:34,0.032,0.0,0.023,0.001
11/12/2023,09:50:35,0.033,0.0,0.023,0.0
11/12/2023,09:51:35,0.033,0.0,0.024,0.001
11/12/2023,09:52:35,0.033,0.0,0.025,0.001
11/12/2023,09:53:35,0.034,0.0,0.025,0.0
11/12/2023,09:54:35,0.035,0.0,0.026,0.001
11/12/2023,09:55:35,0.036,0.0,0.026,0.0
11/12/2023,09:56:35,0.036,0.0,0.027,0.001
11/12/2023,09:57:34,0.038,0.0,0.028,0.001
11/12/2023,09:58:34,0.037,0.0,0.028,0.0
11/12/2023,09:59:34,0.037,0.0,0.029,0.001
11/12/2023,10:00:35,0.039,0.0,0.029,0.0
11/12/2023,10:01:35,0.040,0.0,0.03,0.001
11/12/2023,10:02:34,0.039,0.0,0.031,0.001
11/12/2023,10:03:35,0.039,0.0,0.031,0.0
11/12/2023,10:04:35,0.039,0.0,0.032,0.001
11/12/2023,10:05:34,0.040,0.0,0.033,0.001
11/12/2023,10:06:34,0.042,0.0,0.033,0.0
11/12/2023,10:07:34,0.044,0.0,0.034,0.001
11/12/2023,10:08:34,0.047,0.0,0.035,0.001
11/12/2023,10:09:34,0.048,0.0,0.036,0.001
11/12/2023,10:10:34,0.051,0.0,0.036,0.0
11/12/2023,10:11:34,0.052,0.0,0.037,0.001
11/12/2023,10:12:34,0.050,0.0,0.038,0.001
11/12/2023,10:13:34,0.049,0.0,0.039,0.001
11/12/2023,10:14:35,0.048,0.0,0.04,0.001
11/12/2023,10:15:34,0.047,0.0,0.041,0.001
11/12/2023,10:16:34,0.049,0.0,0.041,0.0
11/12/2023,10:17:34,0.049,0.0,0.042,0.001
11/12/2023,10:18:34,0.051,0.0,0.043,0.001
11/12/2023,10:19:34,0.051,0.0,0.044,0.001
11/12/2023,10:20:35,0.049,0.0,0.045,0.001
11/12/2023,10:21:34,0.048,0.0,0.046,0.001
11/12/2023,10:22:35,0.046,0.0,0.046,0.0